METEOR 2-7 DEB, 43300

Orbit data source: Space-Track

METEOR 2-7 DEB, 43300 is space debris in LEO originally from a launch on Thu, 14 May 1981 UTC launched from the Plesetsk Missile And Space Complex (PKMTR). Debris objects in space refer to the collection of defunct objects orbiting the Earth. Examples of debris include non-operational satellites, rocket bodies, and fragments generated from explosions, collisions, or faulty payload assembly.

Loading next visibility...
Identifier
43300, 1981-043X
Orbit
LEO
Country
Flag of CISCIS
Related business
Manufacturer
Unknown
Mission
Spacecraft
Bus & Motor
Unknown
Mass
Unknown
Launch date (UTC)
1981-05-14 (44 years ago)
Launch vehicle
Unknown
Launch site
Plesetsk Missile And Space Complex (PKMTR)
Object type
Payload
Rocket body
Debris
Shape & HBR
Unknown
Radar Cross Section
Small (<0.1 m²)

Expand to show TLE details & history
Last TLE update: 1 day ago

TLE from 1 day ago
0 METEOR 2-7 DEB
1 43300U 81043X   25259.90196563  .00004220  00000-0  16049-2 0  9998
2 43300  81.2568 332.0417 0035674 101.9121 258.6064 14.30478664516165
Epoch: 2025-09-16T21:38Z
TLE epoch observation values (Epoch: 2025-09-16T21:38:49.83Z)
Latitude
-0.00008°
Longitude
11.24845°
Altitude
798.199 km
Speed
7.452 km/s
True Right ascension
22h 08m 10s
True Declination
0° 00' 00"
Sunlit
Object was in full shadow at epoch
Visualization orbit readout
Latitude
Unknown
Longitude
Unknown
Altitude
Unknown
Speed
Unknown
Apparent Right ascension
Unknown
Apparent Declination
Unknown
Sunlit
N/A
Visualization observer readout
Local Sidereal Time
15:29:38
Azimuth
Unknown
Elevation
Unknown
Doppler factor
Unknown
Orbital elements
Apogee altitude
812.839 km
Perigee altitude
761.716 km
Semi-major axis
7,165.414 km
Eccentricity
0.00357
Inclination
81.2568°
RAAN
332.0417°
Arg. of periapsis
101.9121°
True anomaly
258.20602°
Mean anomaly
258.6064°
Eccentric anomaly
258.40617°
Mean motion
3.57834 °/min
Orbital period
100.61 mins
BSTAR
0.0016049
Loading maneuver chart data...
Computing Atmospheric mass density...
Loading historical data...
Loading historical data...
Loading historical data...
Loading historical data...
Loading historical data...
Loading historical data...
Loading historical data...

Documentation

Showing up to 5 results
|